FW9568 Weather Reports


Display with metric or nautical units.
time (UTC)temp
F
wind
direction
speed
MPH
gust
MPH
rain 1hr
in
rain 24hr
in
rain mn
in
humidity
%
barometer
mb
20260504215403 68 284 7.0 18.0 0.00 0.00 0.00 30 1007.5
20260504214503 70 289 2.0 9.0 0.00 0.00 0.00 22 1007.5
20260504213603 71 192 0.0 3.0 0.00 0.00 0.00 22 1007.6
20260504212703 72 102 0.0 2.0 0.00 0.00 0.00 21 1007.3
20260504211803 72 86 2.0 5.0 0.00 0.00 0.00 21 1007.4
20260504211118 73 104 1.0 6.0 0.00 0.00 0.00 20 1007.6
20260504210003 73 77 1.0 5.0 0.00 0.00 0.00 21 1007.6
20260504205403 73 58 1.0 3.0 0.00 0.00 0.00 19 1007.6
20260504204503 74 259 1.0 4.0 0.00 0.00 0.00 18 1007.7
20260504203603 74 219 2.0 5.0 0.00 0.00 0.00 20 1007.9
20260504202703 74 257 1.0 6.0 0.00 0.00 0.00 24 1008.0
20260504201803 73 260 3.0 8.0 0.00 0.00 0.00 22 1008.2
20260504200903 73 250 3.0 8.0 0.00 0.00 0.00 23 1008.4
20260504200003 74 250 2.0 9.0 0.00 0.00 0.00 22 1008.3
20260504195403 73 217 2.0 4.0 0.00 0.00 0.00 21 1008.6
20260504194503 72 115 1.0 3.0 0.00 0.00 0.00 21 1008.6
20260504193815 72 169 2.0 4.0 0.00 0.00 0.00 20 1008.6
20260504192919 71 200 1.0 2.0 0.00 0.00 0.00 22 1008.8
20260504191803 71 286 1.0 3.0 0.00 0.00 0.00 21 1008.9
20260504190903 71 290 1.0 5.0 0.00 0.00 0.00 19 1009.0
20260504190003 71 279 2.0 6.0 0.00 0.00 0.00 18 1009.2
20260504185403 72 271 2.0 5.0 0.00 0.00 0.00 21 1009.1
20260504184503 71 278 3.0 9.0 0.00 0.00 0.00 21 1009.2
20260504183603 71 283 3.0 7.0 0.00 0.00 0.00 21 1009.4
20260504182703 71 317 2.0 7.0 0.00 0.00 0.00 22 1009.4
20260504181803 69 298 1.0 6.0 0.00 0.00 0.00 25 1009.6
20260504180903 68 283 3.0 8.0 0.00 0.00 0.00 22 1009.8
20260504180003 68 296 4.0 10.0 0.00 0.00 0.00 21 1009.7
20260504175403 68 285 4.0 12.0 0.00 0.00 0.00 22 1009.8
20260504174503 68 277 4.0 9.0 0.00 0.00 0.00 23 1009.8
20260504173603 69 275 3.0 11.0 0.00 0.00 0.00 24 1009.9
20260504172918 69 28 1.0 5.0 0.00 0.00 0.00 24 1010.0
20260504171803 69 285 2.0 7.0 0.00 0.00 0.00 24 1010.0
20260504170903 69 284 3.0 7.0 0.00 0.00 0.00 23 1010.4
20260504150903 64 302 2.0 4.0 0.00 0.00 0.00 34 1011.2
20260504140903 57 0 0.0 0.0 0.00 0.00 0.00 46 1011.1
20260504081803 54 296 1.0 2.0 0.00 0.00 0.00 40 1012.1
20260504080903 54 297 1.0 3.0 0.00 0.00 0.00 38 1012.1
20260504050003 57 295 1.0 3.0 0.00 0.00 0.00 35 1013.4
20260504045403 58 294 1.0 3.0 0.00 0.00 0.00 34 1013.5
20260504044504 58 306 1.0 4.0 0.00 0.00 0.00 34 1013.5
20260504043605 58 298 1.0 4.0 0.00 0.00 0.00 34 1013.5
20260504042703 59 298 2.0 6.0 0.00 0.00 0.00 34 1013.6
20260504041803 59 293 1.0 3.0 0.00 0.00 0.00 34 1013.8
20260504040903 59 0 0.0 0.0 0.00 0.00 0.00 34 1013.7
20260504040003 60 0 0.0 0.0 0.00 0.00 0.00 32 1013.8
20260504035403 60 0 0.0 0.0 0.00 0.00 0.00 32 1013.6
20260504034503 61 311 0.0 1.0 0.00 0.00 0.00 31 1013.6
20260504033603 61 316 0.0 2.0 0.00 0.00 0.00 30 1013.7
20260504032703 62 28 0.0 3.0 0.00 0.00 0.00 29 1013.6
20260504031803 62 332 1.0 3.0 0.00 0.00 0.00 28 1013.5
20260504030903 62 293 1.0 4.0 0.00 0.00 0.00 29 1013.6
20260504030003 62 300 0.0 1.0 0.00 0.00 0.00 29 1013.2
20260504025403 63 300 0.0 1.0 0.00 0.00 0.00 28 1013.2
20260504024503 64 0 0.0 0.0 0.00 0.00 0.00 27 1012.9
20260504023603 64 300 0.0 1.0 0.00 0.00 0.00 26 1012.8
20260504022703 65 300 0.0 2.0 0.00 0.00 0.00 24 1012.8
20260504022016 65 312 1.0 4.0 0.00 0.00 0.00 24 1012.7
20260504020903 65 299 2.0 6.0 0.00 0.00 0.00 24 1012.7
20260504020003 66 359 1.0 2.0 0.00 0.00 0.00 25 1012.8
20260504015403 66 65 1.0 3.0 0.00 0.00 0.00 25 1012.8
20260504014503 66 65 1.0 4.0 0.00 0.00 0.00 23 1012.7
20260504013817 67 33 1.0 4.0 0.00 0.00 0.00 24 1012.4
20260504012703 67 284 0.0 4.0 0.00 0.00 0.00 23 1012.6
20260504012019 68 0 0.0 0.0 0.00 0.00 0.00 22 1012.4
20260504010903 68 0 0.0 0.0 0.00 0.00 0.00 21 1012.2
20260504010003 69 0 0.0 0.0 0.00 0.00 0.00 21 1012.2
20260504005403 69 0 0.0 0.0 0.00 0.00 0.00 20 1012.2
20260504004503 69 63 0.0 2.0 0.00 0.00 0.00 20 1012.1
20260504003603 70 64 2.0 7.0 0.00 0.00 0.00 19 1012.2
20260504002703 70 186 0.0 2.0 0.00 0.00 0.00 19 1012.3
20260504001803 71 142 0.0 1.0 0.00 0.00 0.00 20 1012.3
20260504000903 71 149 0.0 1.0 0.00 0.00 0.00 18 1012.4
20260504000219 71 168 0.0 1.0 0.00 0.00 0.00 20 1012.4
20260503235403 71 124 0.0 2.0 0.00 0.00 0.00 18 1012.4
20260503234503 71 167 1.0 2.0 0.00 0.00 0.00 19 1012.5
20260503233603 72 251 2.0 4.0 0.00 0.00 0.00 20 1012.4
20260503232703 72 197 1.0 3.0 0.00 0.00 0.00 20 1012.5
20260503231803 72 195 0.0 2.0 0.00 0.00 0.00 20 1012.6
20260503230903 73 130 0.0 2.0 0.00 0.00 0.00 20 1012.7
20260503230003 73 133 0.0 2.0 0.00 0.00 0.00 17 1012.6
20260503225403 73 185 0.0 3.0 0.00 0.00 0.00 18 1012.7
20260503224503 74 113 2.0 7.0 0.00 0.00 0.00 16 1012.7
20260503223603 74 143 1.0 4.0 0.00 0.00 0.00 19 1012.8
20260503222703 74 111 1.0 4.0 0.00 0.00 0.00 18 1013.0
20260503222018 73 104 1.0 4.0 0.00 0.00 0.00 18 1012.9
20260503220903 73 153 1.0 3.0 0.00 0.00 0.00 17 1013.1
20260503220003 73 186 2.0 4.0 0.00 0.00 0.00 18 1013.3